Location: Dal�� Lhota
(48.7500°N, 14.0167°E)
Time: 22:51:32
(UTC+00:00)

HJ-1C - Pass Details

Date: 24 September 2020
Orbit: 432 x 443 km, 97.1° (Epoch: 25 October)

Event Time Altitude Azimuth Distance (km) Brightness Sun altitude
Rises 17:38:59 0° 154° (SSE) 2,399 6.8 -7.8°
Reaches altitude 10° 17:41:01 10° 149° (SSE) 1,538 5.7 -8.1°
Maximum altitude 17:44:12 50° 73° (ENE) 566 3.5 -8.6°
Drops below altitude 10° 17:47:26 10° 357° (N) 1,556 6.3 -9.1°
Sets 17:49:30 0° 352° (N) 2,433 7.4 -9.5°
